Other Public Products
Issued by NWS Grand Forks, ND

Home | Current Version | Previous Version | Graphics & Text | Print | Product List | Glossary On
Versions: 1 2 3 4 5 6 7 8 9 10 11 12 13 14 15 16 17 18 19 20 21 22 23 24 25 26 27 28 29 30 31 32 33 34 35 36 37 38 39 40 41 42 43 44 45 46 47 48 49 50
000
FPUS83 KFGF 011831
OPUFGF
PRAIRIE TO PINES WEATHER ROUNDUP
NATIONAL WEATHER SERVICE EASTERN NORTH DAKOTA/GRAND FORKS ND
1200 PM CST SUN MAR 01 2015

 **SATELLITE DATA USED TO AUGMENT SKY COVER AT AUTOMATED STATIONS**
 *****  WEATHER ACROSS EASTERN NORTH DAKOTA  *****

CITY           SKY/WX    TMP DP  RH WIND       PRES   REMARKS
GRAND FORKS    FLURRIES  19  10  68 NW15      30.21R WCI   5
6HR MIN TEMP:   0; 6HR MAX TEMP:  18; 6HR PCP: TRACE;

GRAND FORKS AF FLURRIES  19   9  64 NW13      30.20S WCI   6
GRAND CITY NWS   N/A     19 N/A N/A NW12        N/A  WCI   7
BUXTON         NOT AVBL
DEVILS LAKE    SUNNY     14   7  73 NW18      30.21R WCI  -3
6HR MIN TEMP:   1; 6HR MAX TEMP:  14;

FARGO          CLOUDY    20  12  71 W15       30.22S WCI   6
6HR MIN TEMP:   0; 6HR MAX TEMP:  20; 6HR PCP: TRACE;

WAHPETON ARPT  CLOUDY    23  12  63 W17       30.24S WCI   9
$$

 *****  WEATHER ACROSS CENTRAL AND WESTERN NORTH DAKOTA  *****

CITY           SKY/WX    TMP DP  RH WIND       PRES   REMARKS
JAMESTOWN      SUNNY     17   9  70 NW16      30.21R WCI   2
6HR MIN TEMP:   7; 6HR MAX TEMP:  18;

BISMARCK       CLOUDY    24  13  62 NW20      30.27R WCI  10
6HR MIN TEMP:   7; 6HR MAX TEMP:  24; 6HR PCP: TRACE;

MINOT          CLOUDY    16   8  71 W13       30.24R WCI   2
6HR MIN TEMP:   8; 6HR MAX TEMP:  17; 6HR PCP: TRACE;

MINOT AFB      SUNNY     15  10  82 NW16      30.24R WCI  -1
6HR MIN TEMP:   4; 6HR MAX TEMP:  15; 6HR PCP: TRACE;

GARRISON         N/A     18  12  77 NW18G28   30.24R WCI   2
6HR MIN TEMP:   6; 6HR MAX TEMP:  18;

WILLISTON      MOSUNNY   20  11  68 NW9       30.30R WCI   9
6HR MIN TEMP:  11; 6HR MAX TEMP:  21;

DICKINSON      FLURRIES  24  12  60 NW18      30.22R WCI  10
6HR MIN TEMP:  11; 6HR MAX TEMP:  24; 6HR PCP: TRACE;

HETTINGER      CLOUDY    23  11  60 NW20G25   30.26R WCI   8
6HR MIN TEMP:  10; 6HR MAX TEMP:  24;

$$

 *****  OTHER OBSERVATIONS NORTHEAST NORTH DAKOTA  *****

CITY           SKY/WX    TMP DP  RH WIND       PRES   REMARKS
WALHALLA         N/A     16  10  79 N13       30.21S WCI   2
LANGDON        NOT AVBL
CAVALIER       LGT SNOW  16  10  79 NW13      30.21R WCI   2
GRAFTON        NOT AVBL
CANDO          FAIR      16   7  67 NW13      30.22R WCI   2
FORT TOTTEN    NOT AVBL
ROLLA          FAIR      14   9  79 NW15      30.18R WCI  -1
RUGBY          FAIR      14   9  79 NW14      30.23R WCI  -1
 ***** THE ABOVE OBSERVATIONS ARE NON NWS ARE NOT QUALITY
        CONTROLLED AND MAY MIS-REPORT RAIN FOR SNOW...
$$

 *****  OTHER OBSERVATIONS SOUTHEAST NORTH DAKOTA *****

CITY           SKY/WX    TMP DP  RH WIND       PRES   REMARKS
COOPERSTOWN    NOT AVBL
VALLEY CITY    FLURRIES  18  12  79 NW22G28   30.20R WCI   0
OAKES            N/A     21  14  73 W18       30.24R WCI   6
GWINNER        MOCLDY    25  16  68 W20       30.24S WCI  11
SHEYENNE NWR     N/A     21   9  60 W13       29.95  WCI   9
BUFFALO        NOT AVBL
WYNDMERE         N/A     21  12  68 W12         N/A  WCI   9
 ***** THE ABOVE OBSERVATIONS ARE NON NWS ARE NOT QUALITY
       CONTROLLED AND MAY MIS-REPORT RAIN FOR SNOW...
$$

  *****  WEATHER ACROSS NORTHERN MINNESOTA  *****

CITY           SKY/WX    TMP DP  RH WIND       PRES   REMARKS
FLAG ISLAND    SUNNY     16   5  62 W9        30.09S WCI   4
WARROAD        SUNNY     10   1  67 SW9       30.13R WCI  -2
ROSEAU         MOSUNNY   12   5  73 W10       30.14R WCI  -1
HALLOCK        CLOUDY    14   9  79 NW13      30.19R WCI   0
THF RVR FALLS  CLOUDY    10   7  85 W9        30.17S WCI  -2
6HR MIN TEMP:  -6; 6HR MAX TEMP:  10;

HALSTAD          N/A     18  12  78 W8          N/A  WCI   8
FOSSTON        CLOUDY    12   3  67 SW9       30.18R WCI   0
BAUDETTE       PTSUNNY   11   2  67 W7        30.10R WCI   0
6HR MIN TEMP:  -6; 6HR MAX TEMP:  11;

WASKISH        FLURRIES  12   5  73 SW14      30.13S WCI  -3
CROOKSTON      FLURRIES  18  10  73 NW10      30.21R WCI   6
$$
  *****  WEATHER ACROSS CENTRAL AND WEST MINNESOTA  *****

CITY           SKY/WX    TMP DP  RH WIND       PRES   REMARKS
BEMIDJI        MOSUNNY   17   7  66 W14       30.13S WCI   3
PARK RAPIDS    SUNNY     18   7  62 W14       30.14F WCI   4
6HR MIN TEMP:  -6; 6HR MAX TEMP:  18;

WADENA         SUNNY     18   7  62 W9        30.18F WCI   6
DETROIT LAKES  MIX PCPN  18  10  73 W9        30.19S WCI   6
MOORHEAD       LGT SNOW  19  16  86 W9        30.23S VSB 1   WCI   9
FERGUS FALLS   CLOUDY    19   9  63 W10       30.26F WCI   8
ELBOW LAKE     FAIR      20  10  65 W10       30.22F WCI   9
6HR MIN TEMP:  -4; 6HR MAX TEMP:  19;

MORRIS MN      PTSUNNY   25  10  54 W15       30.23S WCI  12
STAPLES        FAIR      19   9  63 W16       30.19S WCI   5
WHEATON        NOT AVBL
$$
  *****  WEATHER ELSEWHERE ACROSS MINNESOTA  *****

CITY           SKY/WX    TMP DP  RH WIND       PRES   REMARKS
DULUTH         FAIR      20   5  52 W16       30.09S WCI   6
6HR MIN TEMP:  11; 6HR MAX TEMP:  20; 6HR PCP: TRACE;

INTRNTL FALLS  PTSUNNY   13   3  64 W12       30.09R WCI  -1
6HR MIN TEMP:  -2; 6HR MAX TEMP:  13;

ELY            SUNNY    N/A N/A N/A VRB13G23  30.03F
CLOQUET        SUNNY     19   3  49 W18       30.11F WCI   4
BRAINERD       MOSUNNY   18   5  57 W13       30.19S WCI   5
6HR MIN TEMP:   4; 6HR MAX TEMP:  18;

HIBBING        SUNNY     18   3  52 W10G18    30.10R WCI   6
6HR MIN TEMP:  10; 6HR MAX TEMP:  18; 6HR PCP: TRACE;

ALEXANDRIA     MOSUNNY   18   7  62 W15       30.22R WCI   4
6HR MIN TEMP:   2; 6HR MAX TEMP:  18;

SAINT CLOUD    MOSUNNY   21   6  52 NW15G22   30.24S WCI   8
6HR MIN TEMP:   9; 6HR MAX TEMP:  21;

MINNEAPOLIS    MOSUNNY   22   5  48 W15       30.28R WCI   9
6HR MIN TEMP:  15; 6HR MAX TEMP:  22;

$$

  *****  WEATHER ACROSS SOUTH DAKOTA  *****

CITY           SKY/WX    TMP DP  RH WIND       PRES   REMARKS
SIOUX FALLS    MOSUNNY   28  14  55 W17G23    30.31F WCI  16
6HR MIN TEMP:   8; 6HR MAX TEMP:  28;

BROOKINGS      NOT AVBL
WATERTOWN      SUNNY     23  12  62 W16       30.23S WCI  10
6HR MIN TEMP:   1; 6HR MAX TEMP:  23;

HURON          SUNNY     28  16  60 W16       30.31S WCI  16
6HR MIN TEMP:   5; 6HR MAX TEMP:  29;

SISSETON         N/A     24  11  57 W17       30.23S WCI  11
ABERDEEN       MOSUNNY   26  15  63 NW15      30.27S WCI  14
6HR MIN TEMP:  -1; 6HR MAX TEMP:  26;

MITCHELL       SUNNY     33   9  36 NW18G25   30.33S WCI  22
PIERRE         SUNNY     32   9  38 W23G31    30.30R WCI  19
6HR MIN TEMP:  10; 6HR MAX TEMP:  32;

MOBRIDGE       PTSUNNY   28  16  60 NW16      30.25R WCI  16
RAPID CITY     SUNNY     27  14  58 N18       30.28R WCI  14
6HR MIN TEMP:   3; 6HR MAX TEMP:  27; 6HR PCP: TRACE;

$$

  *****  SOME WEATHER IN NEARBY STATES *****

CITY           SKY/WX    TMP DP  RH WIND       PRES   REMARKS
GLASGOW MT     SUNNY     22  13  68 NW9       30.31S WCI  12
6HR MIN TEMP:  13; 6HR MAX TEMP:  23; 6HR PCP: TRACE;

GREAT FALLS MT SUNNY     28  11  48 S15       30.19F WCI  16
6HR MIN TEMP:  11; 6HR MAX TEMP:  28;

CHEYENNE WY    MOSUNNY   20  11  68 N10       30.16S WCI   9
6HR MIN TEMP:   9; 6HR MAX TEMP:  20; 6HR PCP: TRACE;

SCOTTSBLUFF NE MOSUNNY   30  13  49 VRB6G17   30.28F WCI  24
6HR MIN TEMP:  14; 6HR MAX TEMP:  30;

OMAHA NE       MOSUNNY   32  17  54 N9        30.39S WCI  24
6HR MIN TEMP:  19; 6HR MAX TEMP:  32;

DES MOINES IA  MOSUNNY   29  17  61 W10       30.37R WCI  20
6HR MIN TEMP:  21; 6HR MAX TEMP:  30; 6HR PCP: TRACE;

DAVENPORT IA   CLOUDY    21  15  78 W9        30.38S WCI  11
6HR MIN TEMP:  12; 6HR MAX TEMP:  21; 6HR PCP: TRACE;

CHICAGO IL     CLOUDY    21  16  81 W7        30.34F HAZE    WCI  12
6HR MIN TEMP:  12; 6HR MAX TEMP:  21; 6HR PCP: TRACE;

EAU CLAIRE WI  LGT SNOW  19  12  74 SW12      30.23F WCI   7
6HR MIN TEMP:  13; 6HR MAX TEMP:  19; 6HR PCP: TRACE;

LA CROSSE WI   CLOUDY    24  15  68 W8        30.29F WCI  15
6HR MIN TEMP:  10; 6HR MAX TEMP:  24; 6HR PCP: TRACE;

$$

  *****  SOME NATIONAL WEATHER *****

CITY           SKY/WX    TMP DP  RH WIND       PRES   REMARKS



USA.gov is the U.S. government's official web portal to all federal, state and local government web resources and services.